Regional Weather Roundup
Issued by NWS Sioux Falls, SD

Home | Current Version | Previous Version | Text Only | Print | Product List | Glossary On
Versions: 1 2 3 4 5 6 7 8 9 10 11 12 13 14 15 16 17 18 19 20 21 22 23 24 25 26 27 28 29 30 31 32 33 34 35 36 37 38 39 40 41 42 43 44 45 46 47 48 49 50
502
ASUS43 KFSD 010510
RWRFSD

WEATHER ROUNDUP FOR SE SOUTH DAKOTA/SW MINNESOTA/NW IOWA
NATIONAL WEATHER SERVICE SIOUX FALLS SD
1200 AM CDT SUN MAY 01 2016

NOTE: "FAIR" INDICATES FEW OR NO CLOUDS BELOW 12,000 FEET WITH NO
SIGNIFICANT WEATHER AND OR OBSTRUCTIONS TO VISIBILITY.


SDZ038>040-050-052>070-010600-
SOUTHEAST SOUTH DAKOTA

CITY           SKY/WX    TMP DP  RH WIND       PRES   REMARKS
BROOKINGS      CLOUDY    45  34  65 NE10      30.09R
CHAMBERLAIN    CLOUDY    44  43  98 N3        30.14R
HURON          CLOUDY    45  37  73 NE8       30.12R
MADISON        CLOUDY    41  41 100 NE7       30.09S
MITCHELL       LGT RAIN  45  42  89 E8        30.12R
SIOUX FALLS    CLOUDY    44  40  85 NE12      30.08R
WINNER         LGT RAIN  43  40  89 E8        30.14R
YANKTON        CLOUDY    45  39  81 NE24      30.04R
$$

MNZ071-072-080-081-089-090-097-098-010600-
SOUTHWEST MINNESOTA

CITY           SKY/WX    TMP DP  RH WIND       PRES   REMARKS
FAIRMONT       CLOUDY    43  36  75 NE15      30.06R
JACKSON        LGT RAIN  43  39  87 E17G24    30.07S
LUVERNE        CLOUDY    43  37  81 E13       30.08R
MARSHALL       CLOUDY    47  33  58 NE13      30.11R
MONTEVIDEO     CLOUDY    46  32  57 E10       30.15R
REDWOOD FALLS  CLOUDY    48  31  51 NE6       30.10S
TRACY          DRIZZLE   45  42  90 E10       30.10S
WINDOM         RAIN      43  43 100 NE10      30.08S
WORTHINGTON    LGT RAIN  42  40  92 E18       30.06S
$$

IAZ001>003-012>014-020>022-031-032-NEZ013-014-SDZ071-010600-
NORTHWEST IOWA

CITY           SKY/WX    TMP DP  RH WIND       PRES   REMARKS
CHEROKEE       CLOUDY    43  42  96 NE18G24   30.00S
DENISON        CLOUDY    45  43  93 E16G26    29.92R FOG
ESTHERVILLE    CLOUDY    42  40  92 NE18      30.04S
LE MARS        CLOUDY    45  41  87 NE17G30   30.01R
ORANGE CITY    CLOUDY    43  41  93 E14G24    30.01S
SHELDON        CLOUDY    43  41  93 NE22G30   30.01S
SIOUX CITY     LGT RAIN  45  41  86 E15G28    29.98R
SPENCER        LGT RAIN  42  40  92 NE22      30.03S FOG
STORM LAKE     CLOUDY    41  41 100 NE24      29.98S FOG
$$

ABBREVIATIONS USED IN REMARKS
   TC - TEMPERATURE IN CELSIUS
  WCI - WIND CHILL INDEX
   HX - HEAT INDEX
  VSB - VISIBILITY





USA.gov is the U.S. government's official web portal to all federal, state and local government web resources and services.